User: anonymous   Login
Location: Cluny
(50.9333°N, 112.8167°W)
Time: 18:04:46
(UTC-07:00)
Language:

Cosmos 1743 Rocket - Orbit

View from above orbital plane
View from above orbital plane
View from above satellite
View from above satellite

Ground track
Ground track

The orbit data is extracted from the following two-line orbital elements,

1 16720U 86034B   15025.40189671  .00000288  00000-0  32413-4 0  6684
2 16720 082.5567 335.9792 0022064 103.7119 043.4574 14.82954115549741
Epoch (UTC): 25 January 2015 09:38:43
Eccentricity: 0.0022064
inclination: 82.5567°
perigee height: 604 km
apogee height: 635 km
right ascension of ascending node: 335.9792°
argument of perigee: 103.7119°
revolutions per day: 14.82954115
mean anomaly at epoch: 43.4574°
orbit number at epoch: 54974

The dashed part of the orbit path shows where the satellite is in the earth's shadow,  

DLR